Location: Aldenham
(51.6667°N, 0.3500°W)
Time: 17:11:30
(UTC+00:00)

SJ 16-02 - Pass Details

Date: 18 November 2025
Orbit: 585 x 594 km, 75.0° (Epoch: 10 December)

Event Time Altitude Azimuth Distance (km) Brightness Sun altitude
Rises 19:56:22 0° 246° (WSW) 2,832 5.4 -35.1°
Reaches altitude 10° 19:59:09 10° 264° (W) 1,933 4.6 -35.5°
Enters shadow 20:01:01 17° 288° (WNW) 1,529 4.0 -35.8°
